Regional Weather Roundup
Issued by NWS Wakefield, VA

Home | Current Version | Previous Version | Text Only | Print | Product List | Glossary Off
Versions: 1 2 3 4 5 6 7 8 9 10 11 12 13 14 15 16 17 18 19 20 21 22 23 24 25 26 27 28 29 30 31 32 33 34 35 36 37 38 39 40 41 42 43 44 45 46 47 48 49 50

000
ASUS41 KAKQ 031515
RWRAKQ

REGIONAL WEATHER ROUNDUP
NATIONAL WEATHER SERVICE WAKEFIELD VA
1100 AM EDT FRI JUL 03 2015

Note: "fair" indicates few or no clouds below 12,000 feet with no
significant weather and/or obstructions to visibility. * = Denotes
station may not report precipitation (e.g., rain,snow,etc.),
thunder or fog.

VAZ042-051-052>054-056-031600-
NORTHERN VIRGINIA

CITY           SKY/WX    TMP DP  RH WIND       PRES   REMARKS
WASH NATIONAL  PTSUNNY   78  67  68 S8        30.00S
DULLES         PTSUNNY   75  63  66 SE7       30.00S
FORT BELVOIR   PTSUNNY   75  64  69 SE7       30.00S
QUANTICO       PTSUNNY   74  65  73 CALM      30.00F
FREDERICKSBRG* PTSUNNY   76  68  75 E3        29.99S
STAFFORD*      CLOUDY    73  65  76 E6        30.04S
WARRENTON      PTSUNNY   72  72 100 CALM      30.00S
CULPEPER*      PTSUNNY   70  65  84 CALM      30.01S
MANASSAS*      MOSUNNY   73  68  83 S5        30.00S
LEESBURG*      PTSUNNY   77  68  73 S6        30.01S
WINCHESTER     PTSUNNY   73  64  73 CALM      30.00S
FRONT ROYAL*   FAIR      72  64  78 E3        30.00S
LURAY*         PTSUNNY   75  68  78 W3        30.00S
$$

VAZ048-049-060>072-079>083-031600-
CENTRAL AND SOUTH CENTRAL VIRGINIA

CITY           SKY/WX    TMP DP  RH WIND       PRES   REMARKS
RICHMOND       PTSUNNY   78  65  63 SE9       29.98F
CHESTERFIELD*  NOT AVBL
PETERSBURG*    CLOUDY    78  71  79 SE3       29.99S
HANOVER        MOSUNNY   76  64  66 SE3       30.00S
TAPPAHANNOCK*  MOSUNNY   78  61  56 S6        30.00S
QUINTON*       FAIR      76  66  71 SE7       29.99F
CHARLOTTSVILLE CLOUDY    72  64  76 CALM      30.00S
GORDONSVILLE*  FAIR      72  66  83 CALM      30.00S
ORANGE*        CLOUDY    73  66  78 CALM      30.01S
LOUISA*        PTSUNNY   77  64  65 E5        29.98S
BUMPASS*       FAIR      76  62  61 CALM      29.99S
FARMVILLE*     CLOUDY    76  65  68 S6        29.98S
CREWE*         CLOUDY    76  66  71 SE7       29.98F
FORT PICKETT*  CLOUDY    75  66  74 SE8       29.99F
CHASE CITY*    CLOUDY    77  67  72 SE5       29.99S
CLARKSVILLE*   CLOUDY    73  68  83 SE5       29.99R
SOUTH HILL*    CLOUDY    74  66  77 CALM      30.04F
LAWRENCEVILLE* NOT AVBL
EMPORIA*         N/A     77  68  73 E3        30.00S
$$

VAZ088>098-031600-
SOUTHEAST VIRGINIA

CITY           SKY/WX    TMP DP  RH WIND       PRES   REMARKS
NORFOLK        SUNNY     77  65  66 N8        29.98S
VIRGINIA BEACH MOSUNNY   79  66  64 E6        29.98R
NORFOLK NAVAL  MOSUNNY   78  62  57 E7        30.00S
WEST POINT*    MOSUNNY   80  66  63 CALM      30.01S
SALUDA*        FAIR      76  66  69 SE8       29.99S
NEWPORT NEWS   SUNNY     78  64  61 E6        29.99S
LANGLEY AFB    SUNNY     78  66  67 NE7       29.98R
FORT EUSTIS    SUNNY     78  65  62 E5        29.97S
WILLIAMSBURG*  SUNNY     79  72  78 SE5       30.00S
HR EXEC AP*    FAIR      81  66  61 NE5       30.01R
FRANKLIN*      CLOUDY    77  67  70 E3        29.99S
WAKEFIELD      CLOUDY    78  64  61 VRB3      29.99S
$$

VAZ020-022-025-037-045-031600-
WEST CENTRAL AND SOUTHWEST VIRGINIA

CITY           SKY/WX    TMP DP  RH WIND       PRES   REMARKS
STAUNTON*      CLOUDY    71  66  83 CALM      30.03S HAZE
WAYNESBORO*    CLOUDY    67  63  86 SE3       30.01F
HOT SPRINGS VA RAIN      61  61 100 SE6       30.06S VSB<1/4
LYNCHBURG      CLOUDY    70  64  81 E7        30.01S
DANVILLE       CLOUDY    75  68  78 E5        29.98S
SOUTH BOSTON*  CLOUDY    76  66  73 MISG      29.99S
MARTINSVILLE   CLOUDY    72  72 100 S3        30.00F FOG
ROANOKE        LGT RAIN  68  66  93 E6        30.02R FOG
BLACKSBURG     CLOUDY    67  67 100 E7        30.04R FOG
DUBLIN*        CLOUDY    69  69 100 E5        30.01S FOG
MARION*        CLOUDY    70  66  87 SE5       30.02S
HILLSVILLE*    CLOUDY    66  65  98 SE3       30.02R FOG
RICHLANDS*     CLOUDY    70  67  89 S3        29.98S
WISE*          CLOUDY    70  68  94 S10       30.00R
ABINGDON*      CLOUDY    73  70  88 S6        29.98R
$$

MDZ021>025-VAZ099-100-031600-
SOUTHERN MARYLAND AND THE DELMARVA PENINSULA

CITY           SKY/WX    TMP DP  RH WIND       PRES   REMARKS
PATUXENT RIVER MOSUNNY   76  64  66 SE6       29.99F
BAY BRIDGE APT   N/A     75  63  64 SE6       30.00S
LEONARDTOWN    MOSUNNY   77  61  57 S3        30.01S
DOVER          PTSUNNY   75  67  74 E3        29.99R
GEORGETOWN     PTSUNNY   77  65  66 VRB5      30.00R
EASTON         SUNNY     77  66  69 CALM      30.03
CAMBRIDGE      PTSUNNY   77  63  61 CALM      29.99S
SALISBURY      MOSUNNY   77  64  64 SE7       29.99S
OCEAN CITY     MOSUNNY   75  63  66 VRB3      29.99S
WALLOPS ISLAND SUNNY     77  65  66 NE5       30.00S
ACCOMACK*      SUNNY     77  66  69 E6        29.99S
$$

NCZ012>017-030>032-031600-
NORTH CENTRAL AND EASTERN NORTH CAROLINA

CITY           SKY/WX    TMP DP  RH WIND       PRES   REMARKS
ROANOKE RAPIDS PTSUNNY   75  68  78 CALM      29.98F
RALEIGH        CLOUDY    74  70  87 VRB6      29.99R
ELIZABETH CITY PTSUNNY   78  69  73 E5        29.99R
AHOSKIE*       MOSUNNY   76  69  78 E3        29.99R
EDENTON*         N/A     78  70  77 CALM      29.99R
CURRITUCK*     PTSUNNY   79  64  61 NE3       29.99S
KILL DEVIL HLS CLOUDY    77  71  80 E3        29.98R
MANTEO         CLOUDY    76  72  85 NE6       29.99R
CAPE HATTERAS  PTSUNNY   79  71  76 SW9       29.99S
TARBORO*         N/A     79  71  74 E5        29.98F
GOLDSBORO      CLOUDY    76  69  80 SE6       29.96S
WASHINGTON     MOSUNNY   76  70  82 CALM      29.99F
GREENVILLE     MOSUNNY   81  72  74 S5        30.00S
NEW BERN       CLOUDY    76  69  79 SW6       30.01S
WILMINGTON     PTSUNNY   77  71  82 W10       30.00R
$$

VAZ048-031600-
ELSEWHERE

CITY           SKY/WX    TMP DP  RH WIND       PRES   REMARKS
HARRISBURG PA  SUNNY     75  61  61 S5        30.00R
BALTIMORE      PTSUNNY   74  64  71 CALM      29.99S
ANNAPOLIS      PTSUNNY   74  66  76 E7        29.99S HAZE
ANDREWS AFB    MOSUNNY   76  72  87 SE8       29.99F
PHILADELPHIA   PTSUNNY   78  58  49 E6        30.01R
HENDERSON NC   CLOUDY    73  65  74 SE5       29.99S
GREENSBORO     CLOUDY    72  70  94 S12       29.97S FOG
ROCKY MOUNT    PTSUNNY   81  71  71 VRB7      29.97F
$$

VAZ100-031600-
MARINE

STATION/POSITION TIME  TEMP    WIND        PRES    WAVE   SWELL
                       AIR SEA DIR/SP/G            HT/PER HT/PER
                 (UTC) (F)     (DEG/KT/KT) (MB)    (FT/S) (FT/S)
BRANDYWINE LGT   1400   73 73  130/  2/  2 1015.7R
CAPE MAY NJ      1400   73 75  100/  3/  3 1015.1R
LEWES DE         1400   72 72   50/  4/  5 1015.4R
15NM E FENWICK I 1450   73 73              1015.4R   4/ 8
OCEAN-CITY-INLET 1400   74 71   70/  3/  4 1015.1R
WACHAPREAGUE VA  1400   74 77   80/  2/  4 1015.7R
GOOSES REEF MD   1500   74 77  180/  4/  8 1016.8R
COVE POINT MD    1400   72     170/  6/  7 1016.4R
SOLOMONS ISLAND  1400      79                N/A
BISHOPS HEAD MD  1400   74     110/  4/  5 1015.5R
PINEY POINT MD   1400          170/  5/  5   N/A
CAMBRIDGE MD     1400   72 79   70/  2/  3 1015.6R
LEWISETTA VA     1400   75 79  120/  6/  7 1015.2R
RAPPAHANNOCK LGT 1400          110/  3/  4 1016.1R
STINGRAY PT      1500   75 81  130/  4/  6 1015.8R   1
YORK RVR RNG VA  1400   74     110/  6/  8 1014.9F
YORKTOWN VA      1400   74 79   90/  7/  9 1015.3F
JAMESTOWN VA     1500   76 83  110/  6/ 10   N/A
DOMINION TERM VA 1400   75      80/  8/ 11 1015.2F
KIPTOPEKE VA     1400      83  120/  4/  7   N/A
CHES BAY BRIDGE  1400   72 76   40/  6/  8 1015.0S
CAPE HENRY VA    1400   73      30/  6/  8 1013.7F
CHESAPEAKE LGHT  1400   73      50/  7/  7 1016.0S
WILLOUBY STN VA  1400   74      70/  8/ 10 1016.2F
CAPE HENRY BUOY  1428      78                N/A     3/ 9
1ST LANDING BUOY 1500      76              1015.1R   2/ 4
CAPE CHARLES BUO 1426      78                N/A     3/ 7   2/ 7
OFFSHORE WE BUOY 1411      78                N/A     3/ 8   3/ 8
64NM E OF VA BCH 1450   75 76   40/  6/  8 1014.7R   5/ 7   5/ 7
DUCK PIER NC     1400   74 71   30/  8/  9 1014.2R
44100 DUCK FRF   1424      77                N/A     3/ 8
44056 DUCK FRF   1411      73                N/A     3/ 7
OREGON INLET NC  1400   74 81   10/  3/  4 1015.1R
HATTERAS NC      1400   79 78  240/  8/ 12 1015.0R
DIAMOND SHLS NC  1450   76 82  260/ 16/ 19 1015.3R   5/ 7   3/ 7
CAPE LOOKOUT NC  1500   79     250/ 20/ 21 1015.8R
$$



USA.gov is the U.S. government's official web portal to all federal, state and local government web resources and services.